Time,TemperatureF,DewpointF,PressureIn,WindDirection,WindDirectionDegrees,WindSpeedMPH,WindSpeedGustMPH,Humidity,HourlyPrecipIn,Conditions,Clouds,dailyrainin,SoftwareType,DateUTC
2013-03-11 00:10:00,50.9,29.2,30.15,SE,135,3.6,3.6,43,0.00,,CLR,0.00,VWS V14.01,2013-03-11 04:10:00,
2013-03-11 00:15:00,50.4,28.7,30.15,SE,135,3.8,3.8,43,0.00,,CLR,0.00,VWS V14.01,2013-03-11 04:15:00,
2013-03-11 00:20:00,50.2,28.6,30.12,SE,135,2.7,2.7,43,0.00,,CLR,0.00,VWS V14.01,2013-03-11 04:20:00,
2013-03-11 00:25:00,50.0,28.4,30.12,SE,135,3.8,3.8,43,0.00,,CLR,0.00,VWS V14.01,2013-03-11 04:25:00,
2013-03-11 00:30:00,49.5,27.9,30.12,SSE,158,3.6,3.6,43,0.00,,CLR,0.00,VWS V14.01,2013-03-11 04:30:00,
2013-03-11 00:36:00,49.3,27.8,30.12,SE,135,3.8,3.8,43,0.00,,CLR,0.00,VWS V14.01,2013-03-11 04:36:00,
2013-03-11 00:41:00,48.6,27.1,30.12,SE,135,2.9,2.9,43,0.00,,CLR,0.00,VWS V14.01,2013-03-11 04:41:00,
2013-03-11 00:46:00,48.0,26.6,30.12,SE,135,4.0,4.0,43,0.00,,CLR,0.00,VWS V14.01,2013-03-11 04:46:00,
2013-03-11 00:51:00,47.8,26.4,30.12,SE,135,3.4,3.4,43,0.00,,CLR,0.00,VWS V14.01,2013-03-11 04:51:00,
2013-03-11 00:56:00,47.5,26.1,30.12,SE,135,3.4,3.4,43,0.00,,CLR,0.00,VWS V14.01,2013-03-11 04:56:00,
2013-03-11 01:01:00,47.5,26.1,30.12,ESE,112,3.8,3.8,43,0.00,,CLR,0.00,VWS V14.01,2013-03-11 05:01:00,
2013-03-11 01:06:00,47.1,25.8,30.12,SE,135,2.9,2.9,43,0.00,,CLR,0.00,VWS V14.01,2013-03-11 05:06:00,
2013-03-11 01:11:00,46.8,25.5,30.12,SE,135,2.9,2.9,43,0.00,,CLR,0.00,VWS V14.01,2013-03-11 05:11:00,
2013-03-11 01:16:00,46.8,25.5,30.12,ESE,112,3.4,3.4,43,0.00,,CLR,0.00,VWS V14.01,2013-03-11 05:16:00,
2013-03-11 01:22:00,46.4,25.1,30.09,SE,135,3.4,3.4,43,0.00,,CLR,0.00,VWS V14.01,2013-03-11 05:22:00,
2013-03-11 01:27:00,46.2,25.5,30.09,SSW,202,0.9,0.9,44,0.00,,CLR,0.00,VWS V14.01,2013-03-11 05:27:00,
2013-03-11 01:32:00,46.4,25.1,30.09,SE,135,3.1,3.1,43,0.00,,CLR,0.00,VWS V14.01,2013-03-11 05:32:00,
2013-03-11 01:37:00,46.6,25.3,30.12,SSE,158,2.0,2.0,43,0.00,,CLR,0.00,VWS V14.01,2013-03-11 05:37:00,
2013-03-11 01:42:00,46.6,25.3,30.12,SSE,158,0.0,0.0,43,0.00,,CLR,0.00,VWS V14.01,2013-03-11 05:42:00,
2013-03-11 01:47:00,46.6,25.3,30.12,SE,135,2.7,2.7,43,0.00,,CLR,0.00,VWS V14.01,2013-03-11 05:47:00,
2013-03-11 01:52:00,46.8,25.5,30.12,ESE,112,2.9,2.9,43,0.00,,CLR,0.00,VWS V14.01,2013-03-11 05:52:00,
2013-03-11 01:57:00,46.6,25.3,30.12,SE,135,3.1,3.1,43,0.00,,CLR,0.00,VWS V14.01,2013-03-11 05:57:00,
2013-03-11 02:02:00,46.2,25.5,30.12,SSW,202,2.9,2.9,44,0.00,,CLR,0.00,VWS V14.01,2013-03-11 06:02:00,
2013-03-11 02:07:00,45.5,24.9,30.09,SE,135,0.9,0.9,44,0.00,,CLR,0.00,VWS V14.01,2013-03-11 06:07:00,
2013-03-11 02:12:00,45.0,24.4,30.09,ESE,112,2.0,2.0,44,0.00,,CLR,0.00,VWS V14.01,2013-03-11 06:12:00,
2013-03-11 02:18:00,44.8,24.2,30.09,SE,135,2.7,2.7,44,0.00,,CLR,0.00,VWS V14.01,2013-03-11 06:18:00,
2013-03-11 02:23:00,44.4,23.9,30.09,SE,135,1.3,1.3,44,0.00,,CLR,0.00,VWS V14.01,2013-03-11 06:23:00,
2013-03-11 02:28:00,44.2,23.7,30.09,SSE,158,2.7,2.7,44,0.00,,CLR,0.00,VWS V14.01,2013-03-11 06:28:00,
2013-03-11 02:33:00,43.9,23.4,30.09,SE,135,2.7,2.7,44,0.00,,CLR,0.00,VWS V14.01,2013-03-11 06:33:00,
2013-03-11 02:38:00,43.5,23.1,30.09,SSW,202,2.5,2.5,44,0.00,,CLR,0.00,VWS V14.01,2013-03-11 06:38:00,
2013-03-11 02:43:00,43.3,22.9,30.09,SSW,202,1.3,1.3,44,0.00,,CLR,0.00,VWS V14.01,2013-03-11 06:43:00,
2013-03-11 02:48:00,43.5,23.1,30.09,SE,135,1.1,1.1,44,0.00,,CLR,0.00,VWS V14.01,2013-03-11 06:48:00,
2013-03-11 02:53:00,43.9,23.4,30.09,SW,225,0.0,0.0,44,0.00,,CLR,0.00,VWS V14.01,2013-03-11 06:53:00,
2013-03-11 02:58:00,44.2,23.7,30.09,SE,135,0.0,0.0,44,0.00,,CLR,0.00,VWS V14.01,2013-03-11 06:58:00,
2013-03-11 03:03:00,44.2,23.7,30.09,South,180,0.0,0.0,44,0.00,,CLR,0.00,VWS V14.01,2013-03-11 07:03:00,
2013-03-11 03:08:00,44.2,23.7,30.09,SE,135,2.2,2.2,44,0.00,,CLR,0.00,VWS V14.01,2013-03-11 07:08:00,
2013-03-11 03:13:00,43.7,23.2,30.09,ESE,112,3.6,3.6,44,0.00,,CLR,0.00,VWS V14.01,2013-03-11 07:13:00,
2013-03-11 03:18:00,43.5,23.1,30.09,ESE,112,4.3,4.3,44,0.00,,CLR,0.00,VWS V14.01,2013-03-11 07:18:00,
2013-03-11 03:23:00,43.5,23.1,30.09,ESE,112,4.0,4.0,44,0.00,,CLR,0.00,VWS V14.01,2013-03-11 07:23:00,
2013-03-11 03:28:00,43.5,23.1,30.09,ESE,112,2.9,2.9,44,0.00,,CLR,0.00,VWS V14.01,2013-03-11 07:28:00,
2013-03-11 03:33:00,43.7,23.2,30.09,ESE,112,2.9,2.9,44,0.00,,CLR,0.00,VWS V14.01,2013-03-11 07:33:00,
2013-03-11 03:38:00,43.5,23.1,30.09,ESE,112,3.1,3.1,44,0.00,,CLR,0.00,VWS V14.01,2013-03-11 07:38:00,
2013-03-11 03:44:00,43.2,22.7,30.09,SSE,158,3.4,3.4,44,0.00,,CLR,0.00,VWS V14.01,2013-03-11 07:44:00,
2013-03-11 03:49:00,42.8,22.4,30.09,SE,135,2.9,2.9,44,0.00,,CLR,0.00,VWS V14.01,2013-03-11 07:49:00,
2013-03-11 03:54:00,42.8,22.4,30.06,SE,135,4.0,4.0,44,0.00,,CLR,0.00,VWS V14.01,2013-03-11 07:54:00,
2013-03-11 03:59:00,43.0,22.6,30.06,ESE,112,4.3,4.3,44,0.00,,CLR,0.00,VWS V14.01,2013-03-11 07:59:00,
2013-03-11 04:04:00,43.3,22.9,30.06,ESE,112,2.9,2.9,44,0.00,,CLR,0.00,VWS V14.01,2013-03-11 08:04:00,
2013-03-11 04:09:00,43.3,22.9,30.06,ESE,112,3.4,3.4,44,0.00,,CLR,0.00,VWS V14.01,2013-03-11 08:09:00,
2013-03-11 04:14:00,43.5,23.1,30.06,ESE,112,3.4,3.4,44,0.00,,CLR,0.00,VWS V14.01,2013-03-11 08:14:00,
2013-03-11 04:19:00,43.5,23.1,30.06,ESE,112,3.4,3.4,44,0.00,,CLR,0.00,VWS V14.01,2013-03-11 08:19:00,
2013-03-11 04:24:00,43.7,23.2,30.06,ESE,112,4.3,4.3,44,0.00,,CLR,0.00,VWS V14.01,2013-03-11 08:24:00,
2013-03-11 04:29:00,43.7,23.2,30.06,SE,135,2.7,2.7,44,0.00,,CLR,0.00,VWS V14.01,2013-03-11 08:29:00,
2013-03-11 04:34:00,43.3,22.9,30.06,SE,135,3.8,3.8,44,0.00,,CLR,0.00,VWS V14.01,2013-03-11 08:34:00,
2013-03-11 04:39:00,43.0,22.6,30.06,ESE,112,3.8,3.8,44,0.00,,CLR,0.00,VWS V14.01,2013-03-11 08:39:00,
2013-03-11 04:44:00,43.0,22.6,30.06,SE,135,3.4,3.4,44,0.00,,CLR,0.00,VWS V14.01,2013-03-11 08:44:00,
2013-03-11 04:49:00,43.2,22.7,30.06,ESE,112,3.4,3.4,44,0.00,,CLR,0.00,VWS V14.01,2013-03-11 08:49:00,
2013-03-11 04:54:00,43.0,22.6,30.06,SE,135,2.7,2.7,44,0.00,,CLR,0.00,VWS V14.01,2013-03-11 08:54:00,
2013-03-11 04:59:00,42.8,22.4,30.06,SE,135,2.5,2.5,44,0.00,,CLR,0.00,VWS V14.01,2013-03-11 08:59:00,
2013-03-11 05:04:00,42.4,22.6,30.06,SE,135,3.6,3.6,45,0.00,,CLR,0.00,VWS V14.01,2013-03-11 09:04:00,
2013-03-11 05:09:00,42.3,22.5,30.06,SSE,158,2.9,2.9,45,0.00,,CLR,0.00,VWS V14.01,2013-03-11 09:09:00,
2013-03-11 05:14:00,41.9,22.1,30.06,SE,135,3.4,3.4,45,0.00,,CLR,0.00,VWS V14.01,2013-03-11 09:14:00,
2013-03-11 05:19:00,42.1,22.3,30.06,SE,135,3.4,3.4,45,0.00,,CLR,0.00,VWS V14.01,2013-03-11 09:19:00,
2013-03-11 05:24:00,42.1,22.3,30.06,SE,135,2.9,2.9,45,0.00,,CLR,0.00,VWS V14.01,2013-03-11 09:24:00,
2013-03-11 05:30:00,41.7,22.0,30.06,ESE,112,2.9,2.9,45,0.00,,CLR,0.00,VWS V14.01,2013-03-11 09:30:00,
2013-03-11 05:35:00,41.5,21.8,30.06,ESE,112,2.9,2.9,45,0.00,,CLR,0.00,VWS V14.01,2013-03-11 09:35:00,
2013-03-11 05:40:00,41.7,22.0,30.06,ESE,112,3.8,3.8,45,0.00,,CLR,0.00,VWS V14.01,2013-03-11 09:40:00,
2013-03-11 05:45:00,42.1,22.3,30.06,SE,135,3.1,3.1,45,0.00,,CLR,0.00,VWS V14.01,2013-03-11 09:45:00,
2013-03-11 05:50:00,42.1,22.3,30.03,ESE,112,2.9,2.9,45,0.00,,CLR,0.00,VWS V14.01,2013-03-11 09:50:00,
2013-03-11 05:55:00,42.1,22.3,30.03,ESE,112,2.9,2.9,45,0.00,,CLR,0.00,VWS V14.01,2013-03-11 09:55:00,
2013-03-11 06:00:00,42.1,22.3,30.03,ESE,112,3.1,3.1,45,0.00,,CLR,0.00,VWS V14.01,2013-03-11 10:00:00,
2013-03-11 06:05:00,41.9,22.1,30.03,SE,135,3.8,3.8,45,0.00,,CLR,0.00,VWS V14.01,2013-03-11 10:05:00,
2013-03-11 06:10:00,41.7,22.0,30.03,SE,135,3.4,3.4,45,0.00,,CLR,0.00,VWS V14.01,2013-03-11 10:10:00,
2013-03-11 06:15:00,41.7,22.0,30.03,ESE,112,3.6,3.6,45,0.00,,CLR,0.00,VWS V14.01,2013-03-11 10:15:00,
2013-03-11 06:20:00,42.1,22.3,30.06,ESE,112,4.3,4.3,45,0.00,,CLR,0.00,VWS V14.01,2013-03-11 10:20:00,
2013-03-11 06:25:00,42.6,22.8,30.06,ESE,112,4.0,4.0,45,0.00,,CLR,0.00,VWS V14.01,2013-03-11 10:25:00,
2013-03-11 06:30:00,42.8,22.4,30.06,ESE,112,3.1,3.1,44,0.00,,CLR,0.00,VWS V14.01,2013-03-11 10:30:00,
2013-03-11 06:35:00,42.8,22.4,30.06,ESE,112,3.6,3.6,44,0.00,,CLR,0.00,VWS V14.01,2013-03-11 10:35:00,
2013-03-11 06:40:00,42.4,22.6,30.06,SE,135,2.0,2.0,45,0.00,,CLR,0.00,VWS V14.01,2013-03-11 10:40:00,
2013-03-11 06:45:00,42.4,22.6,30.06,ESE,112,2.7,2.7,45,0.00,,CLR,0.00,VWS V14.01,2013-03-11 10:45:00,
2013-03-11 06:50:00,42.4,22.6,30.03,ESE,112,4.0,4.0,45,0.00,,CLR,0.00,VWS V14.01,2013-03-11 10:50:00,
2013-03-11 06:56:00,42.6,22.8,30.03,ESE,112,3.1,3.1,45,0.00,,CLR,0.00,VWS V14.01,2013-03-11 10:56:00,
2013-03-11 07:01:00,43.0,22.6,30.03,ESE,112,3.4,3.4,44,0.00,,CLR,0.00,VWS V14.01,2013-03-11 11:01:00,
2013-03-11 07:06:00,43.2,22.7,30.03,SE,135,3.4,3.4,44,0.00,,CLR,0.00,VWS V14.01,2013-03-11 11:06:00,
2013-03-11 07:11:00,43.0,22.6,30.03,ESE,112,2.9,2.9,44,0.00,,CLR,0.00,VWS V14.01,2013-03-11 11:11:00,
2013-03-11 07:16:00,42.8,22.4,30.03,SE,135,3.1,3.1,44,0.00,,CLR,0.00,VWS V14.01,2013-03-11 11:16:00,
2013-03-11 07:22:00,42.8,22.4,30.03,SE,135,3.6,3.6,44,0.00,,CLR,0.00,VWS V14.01,2013-03-11 11:22:00,
2013-03-11 07:27:00,42.4,22.6,30.03,ESE,112,2.5,2.5,45,0.00,,CLR,0.00,VWS V14.01,2013-03-11 11:27:00,
2013-03-11 07:32:00,42.3,22.5,30.03,SE,135,3.1,3.1,45,0.00,,CLR,0.00,VWS V14.01,2013-03-11 11:32:00,
2013-03-11 07:37:00,42.1,22.3,30.03,SE,135,1.6,1.6,45,0.00,,CLR,0.00,VWS V14.01,2013-03-11 11:37:00,
2013-03-11 07:42:00,42.1,22.3,30.03,SE,135,0.0,0.0,45,0.00,,CLR,0.00,VWS V14.01,2013-03-11 11:42:00,
2013-03-11 07:47:00,42.1,22.3,30.03,ESE,112,1.6,1.6,45,0.00,,CLR,0.00,VWS V14.01,2013-03-11 11:47:00,
2013-03-11 07:52:00,42.1,22.3,30.03,ESE,112,1.6,1.6,45,0.00,,CLR,0.00,VWS V14.01,2013-03-11 11:52:00,
2013-03-11 07:57:00,42.1,22.3,30.03,ESE,112,0.0,0.0,45,0.00,,CLR,0.00,VWS V14.01,2013-03-11 11:57:00,
2013-03-11 08:02:00,42.1,22.3,30.03,ESE,112,3.1,3.1,45,0.00,,CLR,0.00,VWS V14.01,2013-03-11 12:02:00,
2013-03-11 08:07:00,42.3,22.5,30.03,ESE,112,2.7,2.7,45,0.00,,CLR,0.00,VWS V14.01,2013-03-11 12:07:00,
2013-03-11 08:12:00,42.4,22.6,30.03,SE,135,2.5,2.5,45,0.00,,CLR,0.00,VWS V14.01,2013-03-11 12:12:00,
2013-03-11 08:17:00,42.4,22.6,30.03,SE,135,2.7,2.7,45,0.00,,CLR,0.00,VWS V14.01,2013-03-11 12:17:00,
2013-03-11 08:22:00,42.6,26.7,30.03,SE,135,4.3,4.3,53,0.00,,CLR,0.00,VWS V14.01,2013-03-11 12:22:00,
2013-03-11 08:27:00,43.0,30.1,30.03,ESE,112,3.1,3.1,60,0.00,,CLR,0.00,VWS V14.01,2013-03-11 12:27:00,
2013-03-11 08:32:00,43.5,32.9,30.03,SE,135,2.9,2.9,66,0.00,,CLR,0.00,VWS V14.01,2013-03-11 12:32:00,
2013-03-11 08:38:00,44.1,34.2,30.03,SE,135,3.4,3.4,68,0.00,,CLR,0.00,VWS V14.01,2013-03-11 12:38:00,
2013-03-11 08:43:00,44.4,34.9,30.03,SE,135,3.1,3.1,69,0.00,,CLR,0.00,VWS V14.01,2013-03-11 12:43:00,
2013-03-11 08:48:00,45.0,35.4,30.03,ESE,112,1.6,1.6,69,0.00,,CLR,0.00,VWS V14.01,2013-03-11 12:48:00,
2013-03-11 08:53:00,45.3,35.0,30.03,SSW,202,1.1,1.1,67,0.00,,CLR,0.00,VWS V14.01,2013-03-11 12:53:00,
2013-03-11 08:58:00,45.9,35.2,30.03,South,180,3.4,3.4,66,0.00,,CLR,0.00,VWS V14.01,2013-03-11 12:58:00,
2013-03-11 09:03:00,46.2,35.1,30.03,SE,135,2.9,2.9,65,0.00,,CLR,0.00,VWS V14.01,2013-03-11 13:03:00,
2013-03-11 09:08:00,46.8,35.6,30.03,SE,135,3.6,3.6,65,0.00,,CLR,0.00,VWS V14.01,2013-03-11 13:08:00,
2013-03-11 09:13:00,47.1,36.7,30.03,SE,135,3.8,3.8,67,0.00,,CLR,0.00,VWS V14.01,2013-03-11 13:13:00,
2013-03-11 09:18:00,47.5,37.8,30.03,SSE,158,4.0,4.0,69,0.00,,CLR,0.00,VWS V14.01,2013-03-11 13:18:00,
2013-03-11 09:23:00,48.0,39.4,30.03,SE,135,4.0,4.0,72,0.00,,CLR,0.00,VWS V14.01,2013-03-11 13:23:00,
2013-03-11 09:28:00,48.4,39.8,30.03,SE,135,4.9,4.9,72,0.00,,CLR,0.00,VWS V14.01,2013-03-11 13:28:00,
2013-03-11 09:33:00,48.7,40.5,30.03,SE,135,6.5,6.5,73,0.00,,CLR,0.00,VWS V14.01,2013-03-11 13:33:00,
2013-03-11 09:38:00,49.1,41.2,30.03,SE,135,5.8,5.8,74,0.00,,CLR,0.00,VWS V14.01,2013-03-11 13:38:00,
2013-03-11 09:43:00,49.5,41.9,30.03,SE,135,6.3,6.3,75,0.00,,CLR,0.00,VWS V14.01,2013-03-11 13:43:00,
2013-03-11 09:48:00,49.6,42.0,30.03,SE,135,5.6,5.6,75,0.00,,CLR,0.00,VWS V14.01,2013-03-11 13:48:00,
2013-03-11 09:53:00,50.0,42.4,30.03,SSE,158,3.8,3.8,75,0.00,,CLR,0.00,VWS V14.01,2013-03-11 13:53:00,
2013-03-11 09:58:00,50.4,43.1,30.03,SE,135,4.9,4.9,76,0.00,,CLR,0.00,VWS V14.01,2013-03-11 13:58:00,
2013-03-11 10:03:00,50.7,43.4,30.03,SE,135,4.0,4.0,76,0.00,,CLR,0.00,VWS V14.01,2013-03-11 14:03:00,
2013-03-11 10:08:00,50.9,44.0,30.03,SE,135,4.0,4.0,77,0.00,,CLR,0.00,VWS V14.01,2013-03-11 14:08:00,
2013-03-11 10:13:00,51.3,44.0,30.03,SSE,158,2.0,2.0,76,0.00,,CLR,0.00,VWS V14.01,2013-03-11 14:13:00,
2013-03-11 10:18:00,51.6,44.3,30.03,SSW,202,2.7,2.7,76,0.00,,CLR,0.00,VWS V14.01,2013-03-11 14:18:00,
2013-03-11 10:23:00,51.8,44.5,30.03,SE,135,5.8,5.8,76,0.00,,CLR,0.00,VWS V14.01,2013-03-11 14:23:00,
2013-03-11 10:28:00,52.2,45.2,30.03,SE,135,3.4,3.4,77,0.00,,CLR,0.00,VWS V14.01,2013-03-11 14:28:00,
2013-03-11 10:34:00,52.5,45.5,30.03,SE,135,5.8,5.8,77,0.00,,CLR,0.00,VWS V14.01,2013-03-11 14:34:00,
2013-03-11 10:39:00,52.9,45.9,30.03,SE,135,3.6,3.6,77,0.00,,BKN045,0.00,VWS V14.01,2013-03-11 14:39:00,
2013-03-11 10:44:00,53.1,46.0,30.03,SSE,158,5.8,5.8,77,0.00,,BKN045,0.00,VWS V14.01,2013-03-11 14:44:00,
2013-03-11 10:49:00,53.4,46.4,30.03,SE,135,4.0,4.0,77,0.00,,BKN045,0.00,VWS V14.01,2013-03-11 14:49:00,
2013-03-11 10:54:00,53.8,46.4,30.03,SSE,158,4.5,4.5,76,0.00,,BKN045,0.00,VWS V14.01,2013-03-11 14:54:00,
2013-03-11 10:59:00,54.1,46.8,30.03,SSE,158,4.9,4.9,76,0.00,,BKN045,0.00,VWS V14.01,2013-03-11 14:59:00,
2013-03-11 11:04:00,54.5,47.1,30.03,SSE,158,1.6,1.6,76,0.00,,BKN045,0.00,VWS V14.01,2013-03-11 15:04:00,
2013-03-11 11:09:00,54.9,47.5,30.03,South,180,1.1,1.1,76,0.00,,BKN045,0.00,VWS V14.01,2013-03-11 15:09:00,
2013-03-11 11:14:00,55.6,47.8,30.03,SE,135,3.4,3.4,75,0.00,,BKN045,0.00,VWS V14.01,2013-03-11 15:14:00,
2013-03-11 11:19:00,56.5,48.7,30.03,SSE,158,3.6,3.6,75,0.00,,BKN045,0.00,VWS V14.01,2013-03-11 15:19:00,
2013-03-11 11:24:00,56.7,48.5,30.03,SSE,158,3.1,3.1,74,0.00,,BKN045,0.00,VWS V14.01,2013-03-11 15:24:00,
2013-03-11 11:29:00,57.9,48.6,30.03,SSW,202,4.5,4.5,71,0.00,,BKN045,0.00,VWS V14.01,2013-03-11 15:29:00,
2013-03-11 11:34:00,58.5,48.7,30.03,SE,135,5.4,5.4,70,0.00,,BKN045,0.00,VWS V14.01,2013-03-11 15:34:00,
2013-03-11 11:39:00,59.0,49.2,30.03,SSE,158,5.6,5.6,70,0.00,,OVC049,0.00,VWS V14.01,2013-03-11 15:39:00,
2013-03-11 11:44:00,59.2,48.2,30.03,SE,135,6.3,6.3,67,0.00,,OVC049,0.00,VWS V14.01,2013-03-11 15:44:00,
2013-03-11 11:49:00,59.5,47.8,30.03,SE,135,9.2,9.2,65,0.00,,OVC049,0.00,VWS V14.01,2013-03-11 15:49:00,
2013-03-11 11:54:00,59.9,47.7,30.03,SE,135,9.0,9.0,64,0.00,,OVC049,0.00,VWS V14.01,2013-03-11 15:54:00,
2013-03-11 12:00:00,60.1,47.5,30.03,ESE,112,5.6,5.6,63,0.00,,OVC049,0.00,VWS V14.01,2013-03-11 16:00:00,
2013-03-11 12:05:00,60.6,48.0,30.03,SE,135,4.9,4.9,63,0.00,,OVC049,0.00,VWS V14.01,2013-03-11 16:05:00,
2013-03-11 12:10:00,61.5,48.0,30.03,SE,135,5.4,5.4,61,0.00,,OVC049,0.00,VWS V14.01,2013-03-11 16:10:00,
2013-03-11 12:15:00,62.1,47.6,30.03,South,180,4.9,4.9,59,0.00,,OVC049,0.00,VWS V14.01,2013-03-11 16:15:00,
2013-03-11 12:20:00,61.9,47.4,30.00,SSE,158,4.7,4.7,59,0.00,,OVC049,0.00,VWS V14.01,2013-03-11 16:20:00,
2013-03-11 12:25:00,61.9,47.4,30.00,SSE,158,3.6,3.6,59,0.00,,OVC049,0.00,VWS V14.01,2013-03-11 16:25:00,
2013-03-11 12:30:00,62.6,47.6,30.00,SSW,202,2.9,2.9,58,0.00,,OVC049,0.00,VWS V14.01,2013-03-11 16:30:00,
2013-03-11 12:35:00,63.3,47.4,30.00,SSE,158,7.8,7.8,56,0.00,,OVC055,0.00,VWS V14.01,2013-03-11 16:35:00,
2013-03-11 12:40:00,63.5,43.5,30.00,SE,135,6.5,6.5,48,0.00,,OVC055,0.00,VWS V14.01,2013-03-11 16:40:00,
2013-03-11 12:45:00,64.0,42.9,30.00,South,180,8.7,8.7,46,0.00,,OVC055,0.00,VWS V14.01,2013-03-11 16:45:00,
2013-03-11 12:50:00,64.6,39.1,30.00,SSW,202,6.3,6.3,39,0.00,,OVC055,0.00,VWS V14.01,2013-03-11 16:50:00,
2013-03-11 12:55:00,64.6,39.1,30.00,SSW,202,13.2,13.2,39,0.00,,OVC055,0.00,VWS V14.01,2013-03-11 16:55:00,
2013-03-11 13:00:00,64.0,39.2,30.00,SSW,202,3.6,3.6,40,0.00,,OVC055,0.00,VWS V14.01,2013-03-11 17:00:00,
2013-03-11 13:06:00,64.4,38.9,29.97,SSW,202,4.9,4.9,39,0.00,,OVC055,0.00,VWS V14.01,2013-03-11 17:06:00,
2013-03-11 13:11:00,64.8,39.2,29.97,SSW,202,9.8,9.8,39,0.00,,OVC055,0.00,VWS V14.01,2013-03-11 17:11:00,
2013-03-11 13:16:00,65.5,39.9,29.97,SW,225,7.6,7.6,39,0.00,,OVC055,0.00,VWS V14.01,2013-03-11 17:16:00,
2013-03-11 13:21:00,64.9,39.4,29.97,SSE,158,7.4,7.4,39,0.00,,OVC055,0.00,VWS V14.01,2013-03-11 17:21:00,
2013-03-11 13:26:00,65.3,39.7,29.97,SSW,202,6.0,6.0,39,0.00,,OVC055,0.00,VWS V14.01,2013-03-11 17:26:00,
2013-03-11 13:31:00,66.7,41.0,29.97,SW,225,8.7,8.7,39,0.00,,OVC055,0.00,VWS V14.01,2013-03-11 17:31:00,
2013-03-11 13:36:00,67.1,41.3,29.97,SSW,202,10.7,10.7,39,0.00,,BKN060,0.00,VWS V14.01,2013-03-11 17:36:00,
2013-03-11 13:41:00,68.5,42.6,29.97,SSW,202,10.3,10.3,39,0.00,,BKN060,0.00,VWS V14.01,2013-03-11 17:41:00,
2013-03-11 13:46:00,67.1,41.3,29.97,SSE,158,10.1,10.1,39,0.00,,BKN060,0.00,VWS V14.01,2013-03-11 17:46:00,
2013-03-11 13:51:00,66.4,40.7,29.94,SSW,202,6.3,6.3,39,0.00,,BKN060,0.00,VWS V14.01,2013-03-11 17:51:00,
2013-03-11 13:56:00,66.6,40.9,29.94,South,180,6.0,6.0,39,0.00,,BKN060,0.00,VWS V14.01,2013-03-11 17:56:00,
2013-03-11 14:02:00,68.2,42.3,29.94,SSE,158,14.5,14.5,39,0.00,,BKN060,0.00,VWS V14.01,2013-03-11 18:02:00,
2013-03-11 14:07:00,68.0,42.1,29.94,SSE,158,14.5,14.5,39,0.00,,BKN060,0.00,VWS V14.01,2013-03-11 18:07:00,
2013-03-11 14:12:00,67.5,41.7,29.94,South,180,6.9,6.9,39,0.00,,BKN060,0.00,VWS V14.01,2013-03-11 18:12:00,
2013-03-11 14:17:00,68.4,42.5,29.94,SSW,202,8.7,8.7,39,0.00,,BKN060,0.00,VWS V14.01,2013-03-11 18:17:00,
2013-03-11 14:22:00,67.5,41.7,29.94,SSW,202,7.8,7.8,39,0.00,,BKN060,0.00,VWS V14.01,2013-03-11 18:22:00,
2013-03-11 14:27:00,67.1,41.3,29.94,SSW,202,10.5,10.5,39,0.00,,BKN060,0.00,VWS V14.01,2013-03-11 18:27:00,
2013-03-11 14:32:00,67.6,41.8,29.94,SSW,202,11.0,11.0,39,0.00,,BKN060,0.00,VWS V14.01,2013-03-11 18:32:00,
2013-03-11 14:37:00,68.4,42.5,29.88,SSW,202,7.4,7.4,39,0.00,,BKN060,0.00,VWS V14.01,2013-03-11 18:37:00,
2013-03-11 14:42:00,68.0,42.1,29.88,South,180,5.6,5.6,39,0.00,,BKN055,0.00,VWS V14.01,2013-03-11 18:42:00,
2013-03-11 14:47:00,67.3,41.5,29.88,SSW,202,5.8,5.8,39,0.00,,BKN055,0.00,VWS V14.01,2013-03-11 18:47:00,
2013-03-11 14:52:00,67.1,41.3,29.91,West,270,5.8,5.8,39,0.00,,BKN055,0.00,VWS V14.01,2013-03-11 18:52:00,
2013-03-11 14:57:00,66.9,41.2,29.91,SSW,202,8.1,8.1,39,0.00,,BKN055,0.00,VWS V14.01,2013-03-11 18:57:00,
2013-03-11 15:02:00,66.9,41.2,29.91,SW,225,8.1,8.1,39,0.00,,BKN055,0.00,VWS V14.01,2013-03-11 19:02:00,
2013-03-11 15:07:00,66.9,41.2,29.91,SW,225,9.0,9.0,39,0.00,,BKN055,0.00,VWS V14.01,2013-03-11 19:07:00,
2013-03-11 15:12:00,67.8,42.0,29.91,South,180,12.8,12.8,39,0.00,,BKN055,0.00,VWS V14.01,2013-03-11 19:12:00,
2013-03-11 15:17:00,67.3,41.5,29.91,SSW,202,10.1,10.1,39,0.00,,BKN055,0.00,VWS V14.01,2013-03-11 19:17:00,
2013-03-11 15:22:00,67.1,41.3,29.88,SSW,202,4.9,4.9,39,0.00,,BKN055,0.00,VWS V14.01,2013-03-11 19:22:00,
2013-03-11 15:27:00,66.9,41.2,29.88,SSW,202,4.3,4.3,39,0.00,,BKN055,0.00,VWS V14.01,2013-03-11 19:27:00,
2013-03-11 15:32:00,67.1,41.3,29.88,SSW,202,6.0,6.0,39,0.00,,BKN055,0.00,VWS V14.01,2013-03-11 19:32:00,
2013-03-11 15:38:00,67.3,41.5,29.88,SSW,202,4.9,4.9,39,0.00,,OVC060,0.00,VWS V14.01,2013-03-11 19:38:00,
2013-03-11 15:43:00,68.0,42.1,29.88,South,180,7.4,7.4,39,0.00,,OVC060,0.00,VWS V14.01,2013-03-11 19:43:00,
2013-03-11 15:48:00,68.0,42.1,29.88,SSE,158,6.5,6.5,39,0.00,,OVC060,0.00,VWS V14.01,2013-03-11 19:48:00,
2013-03-11 15:53:00,67.8,42.0,29.85,SSW,202,4.9,4.9,39,0.00,,OVC060,0.00,VWS V14.01,2013-03-11 19:53:00,
2013-03-11 15:58:00,67.8,42.0,29.85,SSE,158,6.5,6.5,39,0.00,,OVC060,0.00,VWS V14.01,2013-03-11 19:58:00,
2013-03-11 16:03:00,69.1,43.1,29.85,South,180,8.7,8.7,39,0.00,,OVC060,0.00,VWS V14.01,2013-03-11 20:03:00,
2013-03-11 16:08:00,68.4,42.5,29.85,ESE,112,5.6,5.6,39,0.00,,OVC060,0.00,VWS V14.01,2013-03-11 20:08:00,
2013-03-11 16:13:00,68.5,42.6,29.85,SSW,202,8.5,8.5,39,0.00,,OVC060,0.00,VWS V14.01,2013-03-11 20:13:00,
2013-03-11 16:18:00,68.5,42.6,29.85,SSW,202,8.5,8.5,39,0.00,,OVC060,0.00,VWS V14.01,2013-03-11 20:18:00,
2013-03-11 16:23:00,69.1,43.1,29.85,SSE,158,4.7,4.7,39,0.00,,OVC060,0.00,VWS V14.01,2013-03-11 20:23:00,
2013-03-11 16:28:00,69.4,43.4,29.85,SSE,158,7.6,7.6,39,0.00,,OVC060,0.00,VWS V14.01,2013-03-11 20:28:00,
2013-03-11 16:33:00,68.7,42.8,29.85,SE,135,4.7,4.7,39,0.00,,OVC060,0.00,VWS V14.01,2013-03-11 20:33:00,
2013-03-11 16:38:00,68.4,42.5,29.85,SSE,158,13.2,13.2,39,0.00,,BKN065,0.00,VWS V14.01,2013-03-11 20:38:00,
2013-03-11 16:43:00,68.2,42.3,29.85,SSW,202,9.4,9.4,39,0.00,,BKN065,0.00,VWS V14.01,2013-03-11 20:43:00,
2013-03-11 16:48:00,68.4,42.5,29.85,SSW,202,6.3,6.3,39,0.00,,BKN065,0.00,VWS V14.01,2013-03-11 20:48:00,
2013-03-11 16:53:00,68.2,42.3,29.85,WSW,248,11.0,11.0,39,0.00,,BKN065,0.00,VWS V14.01,2013-03-11 20:53:00,
2013-03-11 16:59:00,67.8,42.0,29.85,SSE,158,13.0,13.0,39,0.00,,BKN065,0.00,VWS V14.01,2013-03-11 20:59:00,
2013-03-11 17:04:00,67.6,41.8,29.85,SW,225,4.3,4.3,39,0.00,,BKN065,0.00,VWS V14.01,2013-03-11 21:04:00,
2013-03-11 17:09:00,67.6,41.8,29.82,SE,135,7.6,7.6,39,0.00,,BKN065,0.00,VWS V14.01,2013-03-11 21:09:00,
2013-03-11 17:14:00,67.5,41.7,29.82,SSE,158,4.0,4.0,39,0.00,,BKN065,0.00,VWS V14.01,2013-03-11 21:14:00,
2013-03-11 17:19:00,67.5,41.7,29.85,SE,135,5.6,5.6,39,0.00,,BKN065,0.00,VWS V14.01,2013-03-11 21:19:00,
2013-03-11 17:24:00,67.3,41.5,29.85,ESE,112,12.5,12.5,39,0.00,,BKN065,0.00,VWS V14.01,2013-03-11 21:24:00,
2013-03-11 17:29:00,66.9,41.2,29.85,SE,135,6.3,6.3,39,0.00,,BKN065,0.00,VWS V14.01,2013-03-11 21:29:00,
2013-03-11 17:34:00,66.9,41.2,29.85,South,180,14.5,14.5,39,0.00,,BKN065,0.00,VWS V14.01,2013-03-11 21:34:00,
2013-03-11 17:39:00,66.9,41.2,29.85,SSE,158,5.8,5.8,39,0.00,,SCT055,0.00,VWS V14.01,2013-03-11 21:39:00,
2013-03-11 17:44:00,66.9,41.2,29.85,SE,135,7.2,7.2,39,0.00,,SCT055,0.00,VWS V14.01,2013-03-11 21:44:00,
2013-03-11 17:49:00,66.7,41.0,29.82,ESE,112,5.4,5.4,39,0.00,,SCT055,0.00,VWS V14.01,2013-03-11 21:49:00,
2013-03-11 17:54:00,66.7,41.0,29.82,SSE,158,7.6,7.6,39,0.00,,SCT055,0.00,VWS V14.01,2013-03-11 21:54:00,
2013-03-11 18:00:00,66.6,40.9,29.82,South,180,8.5,8.5,39,0.00,,SCT055,0.00,VWS V14.01,2013-03-11 22:00:00,
2013-03-11 18:05:00,66.2,40.5,29.82,SE,135,7.8,7.8,39,0.00,,SCT055,0.00,VWS V14.01,2013-03-11 22:05:00,
2013-03-11 18:10:00,66.2,40.5,29.82,ESE,112,7.2,7.2,39,0.00,,SCT055,0.00,VWS V14.01,2013-03-11 22:10:00,
2013-03-11 18:15:00,66.0,40.4,29.82,SSE,158,6.0,6.0,39,0.00,,SCT055,0.00,VWS V14.01,2013-03-11 22:15:00,
2013-03-11 18:20:00,65.8,40.2,29.82,ESE,112,10.7,10.7,39,0.00,,SCT055,0.00,VWS V14.01,2013-03-11 22:20:00,
2013-03-11 18:25:00,65.7,40.0,29.82,SE,135,12.3,12.3,39,0.00,,SCT055,0.00,VWS V14.01,2013-03-11 22:25:00,
2013-03-11 18:30:00,65.5,39.9,29.82,SE,135,10.7,10.7,39,0.00,,SCT055,0.00,VWS V14.01,2013-03-11 22:30:00,
2013-03-11 18:35:00,65.3,39.7,29.79,ESE,112,6.5,6.5,39,0.00,,BKN055,0.00,VWS V14.01,2013-03-11 22:35:00,
2013-03-11 18:40:00,65.1,39.6,29.79,SSE,158,12.5,12.5,39,0.00,,BKN055,0.00,VWS V14.01,2013-03-11 22:40:00,
2013-03-11 18:45:00,65.1,39.6,29.79,South,180,5.6,5.6,39,0.00,,BKN055,0.00,VWS V14.01,2013-03-11 22:45:00,
2013-03-11 18:50:00,65.1,39.6,29.82,SSE,158,3.6,3.6,39,0.00,,BKN055,0.00,VWS V14.01,2013-03-11 22:50:00,
2013-03-11 18:55:00,65.3,39.7,29.82,SE,135,8.1,8.1,39,0.00,,BKN055,0.00,VWS V14.01,2013-03-11 22:55:00,
2013-03-11 19:00:00,65.1,39.6,29.82,SE,135,7.8,7.8,39,0.00,,BKN055,0.00,VWS V14.01,2013-03-11 23:00:00,
2013-03-11 19:05:00,64.9,39.4,29.82,SSE,158,5.4,5.4,39,0.00,,BKN055,0.00,VWS V14.01,2013-03-11 23:05:00,
2013-03-11 19:10:00,64.9,39.4,29.82,SE,135,5.4,5.4,39,0.00,,BKN055,0.00,VWS V14.01,2013-03-11 23:10:00,
2013-03-11 19:15:00,64.8,39.2,29.82,SSE,158,6.5,6.5,39,0.00,,BKN055,0.00,VWS V14.01,2013-03-11 23:15:00,
2013-03-11 19:20:00,64.6,39.1,29.85,SSE,158,5.6,5.6,39,0.00,,BKN055,0.00,VWS V14.01,2013-03-11 23:20:00,
2013-03-11 19:25:00,64.6,39.1,29.85,SSE,158,7.8,7.8,39,0.00,,BKN055,0.00,VWS V14.01,2013-03-11 23:25:00,
2013-03-11 19:30:00,64.8,39.2,29.85,SE,135,7.8,7.8,39,0.00,,BKN055,0.00,VWS V14.01,2013-03-11 23:30:00,
2013-03-11 19:35:00,64.6,39.1,29.82,SSW,202,7.6,7.6,39,0.00,,BKN055,0.00,VWS V14.01,2013-03-11 23:35:00,
2013-03-11 19:40:00,64.4,38.9,29.82,SSE,158,7.8,7.8,39,0.00,,BKN055,0.00,VWS V14.01,2013-03-11 23:40:00,
2013-03-11 19:45:00,64.4,38.9,29.82,SE,135,8.7,8.7,39,0.00,,FEW044,0.00,VWS V14.01,2013-03-11 23:45:00,
2013-03-11 19:50:00,64.2,39.4,29.82,SSW,202,3.6,3.6,40,0.00,,FEW044,0.00,VWS V14.01,2013-03-11 23:50:00,
2013-03-11 19:56:00,64.0,39.2,29.82,ESE,112,3.6,3.6,40,0.00,,FEW044,0.00,VWS V14.01,2013-03-11 23:56:00,
2013-03-11 20:02:00,64.0,39.2,29.82,SE,135,5.4,5.4,40,0.00,,FEW044,0.00,VWS V14.01,2013-03-12 00:02:00,
2013-03-11 20:07:00,63.9,39.1,29.85,SSW,202,5.4,5.4,40,0.00,,FEW044,0.00,VWS V14.01,2013-03-12 00:07:00,
2013-03-11 20:12:00,64.0,39.2,29.85,SSW,202,4.3,4.3,40,0.00,,FEW060,0.00,VWS V14.01,2013-03-12 00:12:00,
2013-03-11 20:17:00,64.0,39.2,29.85,South,180,3.6,3.6,40,0.00,,FEW060,0.00,VWS V14.01,2013-03-12 00:17:00,
2013-03-11 20:22:00,63.9,39.1,29.85,SSE,158,10.3,10.3,40,0.00,,FEW060,0.00,VWS V14.01,2013-03-12 00:22:00,
2013-03-11 20:27:00,63.7,38.9,29.85,SSE,158,4.0,4.0,40,0.00,,FEW060,0.00,VWS V14.01,2013-03-12 00:27:00,
2013-03-11 20:32:00,63.5,38.8,29.85,SW,225,2.7,2.7,40,0.00,,FEW060,0.00,VWS V14.01,2013-03-12 00:32:00,
2013-03-11 20:37:00,63.5,38.8,29.85,SE,135,10.5,10.5,40,0.00,,FEW060,0.00,VWS V14.01,2013-03-12 00:37:00,
2013-03-11 20:42:00,63.3,38.6,29.85,SE,135,8.1,8.1,40,0.00,,FEW060,0.00,VWS V14.01,2013-03-12 00:42:00,
2013-03-11 20:47:00,63.1,38.5,29.85,ESE,112,13.2,13.2,40,0.00,,FEW060,0.00,VWS V14.01,2013-03-12 00:47:00,
2013-03-11 20:52:00,63.0,38.3,29.82,SE,135,8.7,8.7,40,0.00,,FEW060,0.00,VWS V14.01,2013-03-12 00:52:00,
2013-03-11 20:57:00,63.0,38.3,29.82,SE,135,6.9,6.9,40,0.00,,FEW060,0.00,VWS V14.01,2013-03-12 00:57:00,
2013-03-11 21:02:00,63.0,38.3,29.82,SSW,202,10.5,10.5,40,0.00,,FEW060,0.00,VWS V14.01,2013-03-12 01:02:00,
2013-03-11 21:07:00,62.6,38.0,29.85,SSW,202,6.0,6.0,40,0.00,,FEW060,0.00,VWS V14.01,2013-03-12 01:07:00,
2013-03-11 21:12:00,62.8,38.1,29.85,SSE,158,7.6,7.6,40,0.00,,FEW060,0.00,VWS V14.01,2013-03-12 01:12:00,
2013-03-11 21:18:00,62.6,38.0,29.85,SSE,158,4.3,4.3,40,0.00,,FEW060,0.00,VWS V14.01,2013-03-12 01:18:00,
2013-03-11 21:23:00,62.4,37.8,29.82,SE,135,10.5,10.5,40,0.00,,FEW060,0.00,VWS V14.01,2013-03-12 01:23:00,
2013-03-11 21:28:00,62.2,37.6,29.82,SSW,202,12.5,12.5,40,0.00,,FEW060,0.00,VWS V14.01,2013-03-12 01:28:00,
2013-03-11 21:33:00,62.2,38.3,29.82,SE,135,7.8,7.8,41,0.00,,FEW060,0.00,VWS V14.01,2013-03-12 01:33:00,
2013-03-11 21:38:00,62.2,40.1,29.82,SE,135,12.1,12.1,44,0.00,,BKN110,0.00,VWS V14.01,2013-03-12 01:38:00,
2013-03-11 21:43:00,62.1,39.9,29.82,SSE,158,7.8,7.8,44,0.00,,BKN110,0.00,VWS V14.01,2013-03-12 01:43:00,
2013-03-11 21:48:00,62.1,41.1,29.82,SE,135,5.6,5.6,46,0.00,,BKN110,0.00,VWS V14.01,2013-03-12 01:48:00,
2013-03-11 21:53:00,61.9,40.9,29.85,SE,135,8.1,8.1,46,0.00,,BKN110,0.00,VWS V14.01,2013-03-12 01:53:00,
2013-03-11 21:58:00,61.9,42.5,29.85,South,180,6.0,6.0,49,0.00,,BKN110,0.00,VWS V14.01,2013-03-12 01:58:00,
2013-03-11 22:03:00,61.9,43.6,29.85,SW,225,10.1,10.1,51,0.00,,BKN110,0.00,VWS V14.01,2013-03-12 02:03:00,
2013-03-11 22:08:00,61.9,45.1,29.82,SSE,158,6.5,6.5,54,0.00,,BKN110,0.00,VWS V14.01,2013-03-12 02:08:00,
2013-03-11 22:13:00,61.5,47.1,29.82,SSE,158,12.1,12.1,59,0.00,,BKN110,0.00,VWS V14.01,2013-03-12 02:13:00,
2013-03-11 22:18:00,61.3,47.3,29.82,SE,135,7.4,7.4,60,0.00,,BKN110,0.00,VWS V14.01,2013-03-12 02:18:00,
2013-03-11 22:23:00,61.0,47.9,29.82,SSW,202,8.1,8.1,62,0.00,,BKN110,0.00,VWS V14.01,2013-03-12 02:23:00,
2013-03-11 22:28:00,60.8,48.6,29.82,SSE,158,10.7,10.7,64,0.00,,BKN110,0.00,VWS V14.01,2013-03-12 02:28:00,
2013-03-11 22:33:00,60.4,49.4,29.82,SE,135,7.8,7.8,67,0.00,,BKN110,0.00,VWS V14.01,2013-03-12 02:33:00,
2013-03-11 22:39:00,60.1,49.9,29.82,SE,135,7.8,7.8,69,0.00,,BKN120,0.00,VWS V14.01,2013-03-12 02:39:00,
2013-03-11 22:44:00,59.7,49.9,29.82,SE,135,9.4,9.4,70,0.00,,BKN120,0.00,VWS V14.01,2013-03-12 02:44:00,
2013-03-11 22:49:00,59.5,49.8,29.82,SE,135,8.7,8.7,70,0.00,,BKN120,0.00,VWS V14.01,2013-03-12 02:49:00,
2013-03-11 22:54:00,59.4,50.0,29.79,ESE,112,11.4,11.4,71,0.00,,BKN120,0.00,VWS V14.01,2013-03-12 02:54:00,
2013-03-11 22:57:00,58.8,50.9,29.79,SE,135,5.4,5.4,75,0.00,,-RA,0.00,VWS V14.01,2013-03-12 02:57:00,
2013-03-11 22:58:00,58.8,50.9,29.79,SE,135,3.8,3.8,75,0.00,,-RA,0.00,VWS V14.01,2013-03-12 02:58:00,
2013-03-11 22:59:00,59.4,50.0,29.79,SE,135,7.8,7.8,71,0.00,,BKN120,0.00,VWS V14.01,2013-03-12 02:59:00,
2013-03-11 23:00:00,58.8,50.9,29.79,SSE,158,5.6,5.6,75,0.00,,-RA,0.00,VWS V14.01,2013-03-12 03:00:00,
2013-03-11 23:01:00,58.8,50.9,29.79,SE,135,12.8,12.8,75,0.00,,-RA,0.00,VWS V14.01,2013-03-12 03:01:00,
2013-03-11 23:02:00,58.8,50.9,29.79,SSE,158,10.5,10.5,75,0.00,,-RA,0.00,VWS V14.01,2013-03-12 03:02:00,
2013-03-11 23:03:00,58.8,50.9,29.79,SSE,158,6.5,6.5,75,0.00,,-RA,0.00,VWS V14.01,2013-03-12 03:03:00,
2013-03-11 23:04:00,59.2,49.8,29.79,SE,135,6.7,6.7,71,0.00,,BKN120,0.00,VWS V14.01,2013-03-12 03:04:00,
2013-03-11 23:05:00,58.8,51.3,29.79,SE,135,14.3,14.3,76,0.00,,-RA,0.00,VWS V14.01,2013-03-12 03:05:00,
2013-03-11 23:06:00,58.8,51.3,29.79,SE,135,8.1,8.1,76,0.00,,-RA,0.00,VWS V14.01,2013-03-12 03:06:00,
2013-03-11 23:07:00,58.8,51.3,29.79,SSW,202,8.7,8.7,76,0.00,,-RA,0.00,VWS V14.01,2013-03-12 03:07:00,
2013-03-11 23:08:00,58.8,51.3,29.79,SSW,202,3.6,3.6,76,0.00,,-RA,0.00,VWS V14.01,2013-03-12 03:08:00,
2013-03-11 23:09:00,59.2,50.2,29.82,SE,135,11.0,11.0,72,0.00,,BKN120,0.00,VWS V14.01,2013-03-12 03:09:00,
2013-03-11 23:10:00,58.8,51.3,29.79,SE,135,3.6,3.6,76,0.00,,-RA,0.00,VWS V14.01,2013-03-12 03:10:00,
2013-03-11 23:11:00,58.8,51.3,29.79,SSE,158,5.8,5.8,76,0.00,,-RA,0.00,VWS V14.01,2013-03-12 03:11:00,
2013-03-11 23:12:00,58.8,51.3,29.79,SE,135,4.9,4.9,76,0.00,,-RA,0.00,VWS V14.01,2013-03-12 03:12:00,
2013-03-11 23:13:00,58.8,51.3,29.79,SSE,158,8.5,8.5,76,0.00,,-RA,0.00,VWS V14.01,2013-03-12 03:13:00,
2013-03-11 23:14:00,59.0,50.0,29.82,SSE,158,13.2,13.2,72,0.00,,BKN120,0.00,VWS V14.01,2013-03-12 03:14:00,
2013-03-11 23:19:00,59.2,50.2,29.79,SSE,158,6.5,6.5,72,0.00,,BKN120,0.00,VWS V14.01,2013-03-12 03:19:00,
2013-03-11 23:24:00,59.0,50.0,29.79,SSE,158,7.8,7.8,72,0.00,,BKN120,0.00,VWS V14.01,2013-03-12 03:24:00,
2013-03-11 23:29:00,59.0,50.0,29.79,SSE,158,6.3,6.3,72,0.00,,BKN120,0.00,VWS V14.01,2013-03-12 03:29:00,
2013-03-11 23:34:00,59.0,50.4,29.79,SE,135,9.6,9.6,73,0.00,,BKN120,0.00,VWS V14.01,2013-03-12 03:34:00,
2013-03-11 23:39:00,59.0,50.4,29.79,SSE,158,6.5,6.5,73,0.00,,-RA,0.00,VWS V14.01,2013-03-12 03:39:00,
2013-03-11 23:44:00,58.8,50.6,29.79,SSE,158,9.6,9.6,74,0.00,,-RA,0.00,VWS V14.01,2013-03-12 03:44:00,
2013-03-11 23:49:00,59.0,50.4,29.79,SSE,158,7.4,7.4,73,0.00,,-RA,0.00,VWS V14.01,2013-03-12 03:49:00,
2013-03-11 23:54:00,58.8,50.6,29.79,SE,135,7.6,7.6,74,0.00,,-RA,0.00,VWS V14.01,2013-03-12 03:54:00,
2013-03-11 23:59:00,58.8,50.9,29.79,SSE,158,8.1,8.1,75,0.00,,-RA,0.00,VWS V14.01,2013-03-12 03:59:00,